Total_Precipitation_Accumulation
0.33 0.26 0.25 0.19 0.19 0.15 0.13 0.10 0.11 0.07 0.10 0.13 0.15 0.18 0.18 0.17 0.15 0.13 0.15 0.12 0.16 0.26
0.26 0.38 0.31 0.23 0.20 0.20 0.16 0.14 0.14 0.14 0.11 0.12 0.16 0.20 0.16 0.10 0.08 0.07 0.08 0.09 0.14 0.12
0.29 0.27 0.44 0.37 0.30 0.21 0.18 0.16 0.15 0.14 0.14 0.16 0.16 0.20 0.17 0.14 0.10 0.09 0.07 0.06 0.08 0.11
0.33 0.34 0.27 0.62 0.44 0.41 0.36 0.28 0.29 0.29 0.22 0.18 0.18 0.19 0.24 0.18 0.15 0.14 0.12 0.08 0.07 0.07
0.50 0.39 0.39 0.35 0.71 0.63 0.52 0.49 0.35 0.40 0.39 0.31 0.24 0.20 0.26 0.26 0.19 0.13 0.13 0.11 0.08 0.07
0.60 0.49 0.43 0.41 0.46 0.84 0.75 0.56 0.60 0.54 0.58 0.47 0.33 0.29 0.23 0.20 0.19 0.16 0.12 0.12 0.12 0.09
0.57 0.61 0.43 0.41 0.42 0.47 0.81 0.67 0.60 0.67 0.62 0.68 0.48 0.33 0.32 0.27 0.24 0.24 0.21 0.16 0.13 0.12
0.11 0.40 0.49 0.36 0.39 0.37 0.37 0.87 0.74 0.77 0.68 0.71 0.83 0.53 0.34 0.31 0.30 0.26 0.28 0.25 0.20 0.17
0.01 0.05 0.22 0.30 0.35 0.34 0.32 0.37 0.77 0.71 0.77 0.60 0.68 0.88 0.56 0.33 0.28 0.28 0.25 0.25 0.24 0.21
0.00 0.00 0.03 0.08 0.16 0.31 0.35 0.35 0.41 0.69 0.68 0.64 0.49 0.59 0.64 0.42 0.28 0.26 0.24 0.23 0.21 0.18
0.00 0.00 0.00 0.01 0.03 0.08 0.21 0.35 0.32 0.40 0.46 0.60 0.48 0.47 0.52 0.50 0.27 0.17 0.16 0.18 0.20 0.19
0.00 0.00 0.00 0.00 0.01 0.02 0.04 0.11 0.29 0.33 0.41 0.35 0.38 0.43 0.42 0.46 0.32 0.24 0.13 0.11 0.15 0.19
0.00 0.00 0.00 0.00 0.00 0.00 0.02 0.02 0.05 0.19 0.26 0.35 0.31 0.40 0.30 0.30 0.29 0.32 0.26 0.13 0.11 0.19
0.00 0.00 0.00 0.00 0.00 0.00 0.00 0.01 0.02 0.06 0.10 0.28 0.31 0.25 0.28 0.31 0.23 0.24 0.28 0.28 0.18 0.12